COSMOS 2452

导读 | 豆包AI

COSMOS 2452是独联体(CIS)发射的军事卫星,于2009年7月6日北京时间8时成功入轨。作为俄罗斯/独联体“宇宙”(COSMOS)系列卫星的一员,该系列多承担军事侦察、空间技术试验等保密任务,这类卫星常部署在近地轨道,服务于空间态势感知与国防航天需求,是独联体航天领域军事应用体系的组成部分,为其空间监测与国防科研提供空间平台支持。

基本信息
目录编号:
35499
目录名称:
COSMOS 2452
国际标识:
2009-036B
轨道中心:
EARTH
卫星名称:
COSMOS 2452
卫星全名:
--
卫星状态:
在轨 (已飞行6085 天)
发射日期:
2009-07-06 UTC
国别 :
俄罗斯(独联体) (CIS)
星等 :
--
轨道信息
数据来源 国际轨道数据
星历时间: 2026-03-04T01:54:37+0800
12小时前
查看轨道信息
半长轴: 7872.023km
偏心率: 0.0015589
轨道倾角: 82.493°
近地点辐角 13.475°
升交点赤经 145.265°
平近点角 346.674°
近地点: 1481.614km
远地点: 1506.158km
周期: 115.848分钟
每日圈数: 12.430062
详细信息
使用方式:
暂无
2D轨道图
3D轨道图
轨道高度分析图
轨道倾角分析图
轨道综合分析图
查看轨道综合分析图